Location: Wawa
(47.9924°N, 84.7711°W)
Time: 20:58:17
(UTC-04:00)

ISS - Visible Passes

Search period start: 27 June 2022 00:00
Search period end: 07 July 2022 00:00
Orbit: 414 x 420 km, 51.6° (Epoch: 27 June)

Date Brightness Start Highest point End Pass type
(mag) Time Alt. Az. Time Alt. Az. Time Alt. Az.
28 Jun -1.8 04:20:11 11° S 04:22:19 19° SE 04:24:45 10° E visible
29 Jun -1.4 03:33:42 11° SE 03:34:18 12° SE 03:35:37 10° ESE visible
30 Jun -3.1 04:19:58 17° SSW 04:22:15 40° SSE 04:25:26 10° ENE visible
01 Jul -2.5 03:33:15 24° SSE 03:33:58 27° SE 03:36:51 10° E visible
02 Jul -1.7 02:46:23 16° ESE 02:46:23 16° ESE 02:47:58 10° E visible
02 Jul -3.8 04:19:16 15° WSW 04:22:00 85° SSE 04:25:23 10° ENE visible
03 Jul -3.7 03:32:17 34° SW 03:33:28 58° SSE 03:36:47 10° ENE visible
04 Jul -3.0 02:45:11 37° SE 02:45:11 37° SE 02:48:03 10° ENE visible
04 Jul -3.2 04:18:15 10° W 04:21:35 58° NNW 04:24:53 10° ENE visible
05 Jul -1.6 01:57:59 17° E 01:57:59 17° E 01:59:07 10° E visible
05 Jul -3.7 03:30:49 22° WSW 03:32:48 75° NNW 03:36:09 10° ENE visible
05 Jul -2.5 05:06:35 10° WNW 05:09:48 42° N 05:13:02 10° ENE visible
06 Jul -3.9 02:43:28 60° SW 02:43:59 80° SSE 02:47:21 10° ENE visible
06 Jul -2.6 04:17:39 10° W 04:20:53 44° N 04:24:08 10° ENE visible
